Location: Grand Lay
(47.3253°N, 0.9468°E)
Time: 16:04:01
(UTC+00:00)

Lacrosse 4 Rocket - Pass Details

Date: 18 January 2026
Orbit: 513 x 564 km, 68.0° (Epoch: 10 February)

Event Time Altitude Azimuth Distance (km) Brightness Sun altitude
Rises 06:33:35 0° 232° (SW) 2,651 4.5 -10.6°
Reaches altitude 10° 06:35:53 10° 241° (WSW) 1,759 3.5 -10.2°
Maximum altitude 06:39:31 36° 309° (NW) 839 1.8 -9.6°
Drops below altitude 10° 06:43:09 10° 18° (NNE) 1,751 3.9 -9.0°
Sets 06:45:27 0° 27° (NNE) 2,639 4.9 -8.7°
